[[{"header":{"parameterUnit":"m.s-1","parameterCategory":1,"la1":30.2991,"la2":30.254,"lo1":-89.0895,"lo2":-89.0444,"dy":0.0017,"dx":0.0017,"nx":28,"ny":28,"refTime":"2025-06-03T09:00:00:Z","depth":0,"parameterNumber":2,"parameterNumberName":"U-component_of_WINDS"},"data":[0,0,0,0,0,0,0,0,0,0,0,0,0,0,0,0,0,0,0,0,0,0,0,0,0,0,0,0,0,0,0,0,0,0,0,0,0,0,0,0,0,0,0,0,0,0,0,0,0,0,0,0,0,0,0,0,0,0,-3.8263,-3.8263,0,-3.8269,-3.8269,-3.8269,-3.8171,-3.8168,-3.8166,-3.8163,-3.8168,-3.8171,-3.8173,0,0,0,0,0,0,0,0,0,0,0,0,0,-3.8165,-3.8168,-3.8263,-3.8263,-3.8263,-3.8269,-3.8269,-3.8269,-3.8172,-3.8168,-3.8165,-3.8162,-3.8167,-3.817,-3.8173,0,0,0,0,0,0,0,0,0,0,0,0,0,-3.8193,-3.8169,-3.8263,-3.8215,-3.8211,-3.8269,-3.8269,-3.8269,-3.8172,-3.8168,-3.8164,-3.8161,-3.8166,-3.817,-3.8174,-3.8277,0,0,-3.8186,-3.8187,0,0,0,0,0,0,0,0,-3.8192,-3.8197,-3.8222,-3.8218,-3.8214,-3.8215,-3.8236,-3.8272,-3.8173,-3.8187,-3.8163,-3.8159,-3.8187,-3.8189,-3.8199,-3.8278,-3.8278,-3.8186,-3.8188,-3.819,-3.8191,0,0,0,0,0,0,0,-3.819,-3.8196,-3.8265,-3.8223,-3.8218,-3.8193,-3.8192,-3.8243,-3.8209,-3.8185,-3.8178,-3.818,-3.8184,-3.8195,-3.8198,-3.8278,-3.8186,-3.8189,-3.8192,-3.8193,-3.8441,-3.8445,0,0,0,0,0,0,-3.8195,-3.8195,-3.8265,-3.8265,-3.8193,-3.8198,-3.8197,-3.8219,-3.8208,-3.8203,-3.8184,-3.8176,-3.819,-3.8194,-3.8198,-3.8316,-3.819,-3.8194,-3.8196,-3.8437,-3.8442,-3.8446,0,0,0,0,0,0,-3.8193,-3.8202,-3.8265,-3.8228,-3.8234,-3.8204,-3.8229,-3.8221,-3.8232,-3.8207,-3.82,-3.8201,-3.8187,-3.8192,-3.8258,-3.8315,-3.8195,-3.8199,-3.8432,-3.8438,-3.8444,-3.8556,0,0,0,0,0,0,-3.8191,-3.8202,-3.8241,-3.823,-3.8237,-3.8325,-3.8232,-3.8224,-3.8239,-3.8229,-3.8222,-3.8217,-3.8185,-3.8253,-3.8262,-3.8318,-3.8202,-3.8426,-3.8434,-3.8442,-3.8547,-3.8565,-3.8581,0,0,0,0,0,-3.8188,-3.8272,-3.8244,-3.8253,-3.8285,-3.8329,-3.8333,-3.8294,-3.8244,-3.8283,-3.8267,-3.8217,-3.8309,-3.826,-3.827,-3.8328,-3.8422,-3.8432,-3.8441,-3.8539,-3.8562,-3.8581,0,0,0,0,0,0,-3.829,-3.827,-3.8238,-3.8322,-3.8328,-3.8312,-3.836,-3.832,-3.834,-3.8329,-3.828,-3.828,-3.8353,-3.8348,-3.8294,-3.8427,-3.8356,-3.8368,-3.8428,-3.8449,-3.8465,-3.8464,-3.8205,0,0,0,0,0,-3.8323,-3.8361,-3.8341,-3.8417,-3.8422,-3.8391,-3.8408,-3.8378,-3.8382,-3.8384,-3.8373,-3.8379,-3.8408,-3.8429,-3.8455,-3.8547,-3.8543,-3.8592,-3.8609,-3.8623,-3.8633,-3.868,-3.87,-3.8478,-3.8477,-3.8477,0,0,-3.839,-3.8384,-3.841,-3.8437,-3.8438,-3.8477,-3.8393,-3.8439,-3.8467,-3.8391,-3.8451,-3.8444,-3.8447,-3.8526,-3.856,-3.8524,-3.8694,-3.8635,-3.8647,-3.8649,-3.8691,-3.8713,-3.8731,-3.8484,-3.8483,-3.8482,0,0,-3.8532,-3.8532,-3.8594,-3.8597,-3.8601,-3.858,-3.8595,-3.8586,-3.8578,-3.8639,-3.8582,-3.8616,-3.8668,-3.8672,-3.8681,-3.8826,-3.878,-3.8837,-3.8924,-3.897,-3.8988,-3.9003,-3.9052,-3.9071,-3.8847,-3.8847,-3.8848,0,-3.8614,-3.8671,-3.8631,-3.868,-3.8693,-3.8628,-3.8689,-3.8695,-3.8706,-3.8716,-3.8676,-3.8741,-3.8738,-3.8816,-3.8852,-3.8862,-3.8877,-3.8835,-3.8989,-3.9004,-3.9017,-3.9064,-3.9083,-3.8854,-3.8853,-3.8853,-3.8852,0,-3.8772,-3.8813,-3.8863,-3.8875,-3.8894,-3.895,-3.8917,-3.8942,-3.8911,-3.8894,-3.8957,-3.8952,-3.8975,-3.8992,-3.8963,-3.9066,-3.9043,-3.8997,-3.8924,-3.9046,-3.9088,-3.9106,-3.8863,-3.8861,-3.8859,-3.8857,0,0,-3.8975,-3.8966,-3.8985,-3.899,-3.8989,-3.902,-3.9073,-3.9096,-3.9116,-3.9128,-3.9169,-3.9216,-3.9173,-3.9183,-3.9154,-3.9195,-3.9308,-3.9143,-3.9142,-3.9171,-3.9419,-3.9451,-3.9473,-3.9279,-3.9282,-3.9285,-3.9418,0,-3.9111,-3.9199,-3.9165,-3.9256,-3.9292,-3.9232,-3.9278,-3.9282,-3.9269,-3.9297,-3.9282,-3.9315,-3.9257,-3.9263,-3.9301,-3.9286,-3.9356,-3.9276,-3.9315,-3.9317,-3.9313,-3.9495,-3.953,-3.9655,-3.9434,-3.9437,-3.9439,0,-3.928,-3.9298,-3.9393,-3.9385,-3.9399,-3.9441,-3.9459,-3.9488,-3.9492,-3.9479,-3.9492,-3.9453,-3.9504,-3.9434,-3.9502,-3.9448,-3.9463,-3.9458,-3.9462,-3.9461,-3.9383,-3.9497,-3.9695,-3.9713,-3.9466,-3.9464,-3.9462,0,-3.9415,-3.9463,-3.9526,-3.9532,-3.9526,-3.9556,-3.9555,-3.9555,-3.9572,-3.9588,-3.9598,-3.9621,-3.9632,-3.965,-3.9619,-3.9572,-3.9691,-3.9619,-3.968,-3.9681,-3.9705,-3.9703,-3.9905,-3.972,-3.972,-3.9719,-3.9719,0,-3.9568,-3.9627,-3.9586,-3.9624,-3.9689,-3.965,-3.9716,-3.9708,-3.9709,-3.9744,-3.9694,-3.9728,-3.9686,-3.9716,-3.9693,-3.9751,-3.9758,-3.9748,-3.974,-3.975,-3.9751,-3.9756,-3.9745,-3.9724,-3.9723,-3.9722,-3.9722,0,-3.9728,-3.9703,-3.9767,-3.9757,-3.9756,-3.9804,-3.9794,-3.9829,-3.9813,-3.9858,-3.9866,-3.9841,-3.9873,-3.9845,-3.9877,-3.9861,-3.9938,-3.992,-3.9936,-3.993,-3.9992,-3.9985,-4.0201,-4.0226,-4.0029,-4.0031,-4.0032,0,-3.9825,-3.987,-3.9865,-3.9885,-3.9887,-3.992,-3.9936,-3.99,-3.9919,-3.9928,-3.9961,-3.999,-4.001,-4.0065,-4.0049,-4.0073,-4.0052,-4.0127,-4.0055,-4.0064,-4.005,-4.0046,-4.0049,-4.014,-4.0142,-4.0144,-4.0146,0,-4.0,-3.9986,-4.0011,-4.0033,-4.0054,-4.007,-4.0081,-4.01,-4.0063,-4.0087,-4.012,-4.0136,-4.0169,-4.0197,-4.0216,-4.0214,-4.0173,-4.0169,-4.0184,-4.0193,-4.0199,-4.0194,-3.9972,-4.0163,-4.0161,-4.016,-4.0159,-4.0158,-4.0129,-4.0166,-4.0167,-4.0198,-4.0203,-4.0215,-4.0246,-4.0235,-4.0262,-4.0285,-4.0263,-4.0302,-4.0305,-4.0326,-4.0329,-4.0359,-4.0328,-4.035,-4.0355,-4.036,-4.0368,-4.0198,-4.0363,-4.0362,-4.0362,-4.0362,-4.0361,0,-4.0299,-4.0297,-4.0326,-4.0343,-4.0367,-4.0329,-4.034,-4.0362,-4.0397,-4.0404,-4.0425,-4.0463,-4.049,-4.0478,-4.0501,-4.0528,-4.051,-4.0535,-4.0531,-4.0531,-4.0396,-4.0379,-4.0549,-4.0549,-4.0549,-4.0549,-4.0549,-4.0549,-4.0389,-4.0448,-4.0434,-4.0495,-4.0493,-4.0531,-4.054,-4.0551,-4.0556,-4.06,-4.0623,-4.0615,-4.0613,-4.0637,-4.066,-4.0655,-4.0665,-4.0697,-4.0685,-4.0559,-4.054,-4.0522,-4.0506,-4.07,-4.07,-4.0817,-4.0818,-4.0819]},{"header":{"parameterUnit":"m.s-1","parameterCategory":1,"la1":30.2991,"la2":30.254,"lo1":-89.0895,"lo2":-89.0444,"dy":0.0017,"dx":0.0017,"nx":28,"ny":28,"refTime":"2025-06-03T09:00:00:Z","depth":0,"parameterNumber":3,"parameterNumberName":"V-component_of_WINDS"},"data":[0,0,0,0,0,0,0,0,0,0,0,0,0,0,0,0,0,0,0,0,0,0,0,0,0,0,0,0,0,0,0,0,0,0,0,0,0,0,0,0,0,0,0,0,0,0,0,0,0,0,0,0,0,0,0,0,0,0,1.442,1.4421,0,1.4427,1.4428,1.4428,1.4416,1.4416,1.4415,1.4415,1.4421,1.4422,1.4422,0,0,0,0,0,0,0,0,0,0,0,0,0,1.4397,1.4397,1.442,1.4421,1.4421,1.4427,1.4428,1.4428,1.4416,1.4416,1.4415,1.4415,1.4421,1.4422,1.4422,0,0,0,0,0,0,0,0,0,0,0,0,0,1.4406,1.4398,1.442,1.4416,1.4415,1.4427,1.4428,1.4428,1.4416,1.4416,1.4415,1.4414,1.4421,1.4422,1.4422,1.4439,0,0,1.4425,1.4425,0,0,0,0,0,0,0,0,1.4405,1.4407,1.4416,1.4416,1.4416,1.442,1.4422,1.4432,1.4416,1.4416,1.4415,1.4414,1.4421,1.4422,1.4425,1.444,1.444,1.4425,1.4425,1.4426,1.4426,0,0,0,0,0,0,0,1.4405,1.4406,1.4423,1.4416,1.4416,1.4413,1.4414,1.4423,1.4422,1.4416,1.4415,1.4416,1.4421,1.4424,1.4425,1.444,1.4425,1.4426,1.4426,1.4426,1.4469,1.447,0,0,0,0,0,0,1.4405,1.4406,1.4423,1.4423,1.4409,1.4414,1.4415,1.4419,1.4422,1.4421,1.4416,1.4415,1.4423,1.4424,1.4425,1.4445,1.4426,1.4427,1.4427,1.4469,1.447,1.447,0,0,0,0,0,0,1.4404,1.4406,1.4423,1.4414,1.4416,1.4415,1.442,1.442,1.4423,1.4422,1.4422,1.442,1.4422,1.4424,1.4436,1.4445,1.4427,1.4428,1.4468,1.4469,1.447,1.4485,0,0,0,0,0,0,1.4404,1.4406,1.4413,1.4415,1.4417,1.4434,1.4421,1.442,1.4424,1.4423,1.4425,1.4425,1.4422,1.4435,1.4437,1.4446,1.4428,1.4467,1.4468,1.447,1.4483,1.4486,1.4488,0,0,0,0,0,1.4403,1.4416,1.4413,1.4415,1.4425,1.4434,1.4435,1.4432,1.4425,1.4431,1.4431,1.4425,1.4444,1.4436,1.4438,1.4447,1.4467,1.4468,1.447,1.4482,1.4485,1.4488,0,0,0,0,0,0,1.4415,1.4416,1.4413,1.4427,1.4431,1.4432,1.444,1.4435,1.4441,1.4439,1.4435,1.4435,1.4448,1.4449,1.4441,1.4464,1.4454,1.4456,1.4463,1.4466,1.4468,1.4468,1.4429,0,0,0,0,0,1.4419,1.4427,1.4428,1.4441,1.4443,1.4441,1.4445,1.4442,1.4446,1.4447,1.4447,1.4451,1.4457,1.4462,1.4468,1.4484,1.4484,1.4491,1.4494,1.4496,1.4497,1.4506,1.4509,1.4475,1.4475,1.4475,0,0,1.4428,1.443,1.4435,1.4443,1.4445,1.4453,1.4442,1.4451,1.4457,1.4448,1.4459,1.446,1.4464,1.4478,1.4484,1.4479,1.4507,1.4498,1.4499,1.45,1.4508,1.4511,1.4514,1.4476,1.4476,1.4476,0,0,1.4448,1.4451,1.4461,1.4464,1.4468,1.4467,1.447,1.4473,1.4473,1.4484,1.4478,1.4485,1.4497,1.4499,1.4502,1.4525,1.4519,1.4527,1.454,1.4548,1.4551,1.4553,1.4561,1.4564,1.4529,1.4529,1.4529,0,1.4459,1.4471,1.4468,1.4477,1.4481,1.4474,1.4485,1.4488,1.4493,1.4496,1.449,1.4505,1.4507,1.4522,1.4527,1.453,1.4533,1.4526,1.4551,1.4553,1.4555,1.4562,1.4565,1.453,1.453,1.4529,1.4529,0,1.4483,1.4492,1.45,1.4506,1.4511,1.4521,1.452,1.4525,1.4522,1.4522,1.4534,1.4536,1.4543,1.4546,1.4543,1.4561,1.4557,1.4551,1.4541,1.4559,1.4566,1.4569,1.4531,1.4531,1.453,1.453,0,0,1.451,1.4515,1.4518,1.4521,1.4525,1.4532,1.4542,1.4549,1.4553,1.4558,1.4566,1.4576,1.4571,1.4574,1.4572,1.4579,1.4597,1.4572,1.4572,1.4577,1.4616,1.462,1.4623,1.4594,1.4594,1.4595,1.4616,0,1.453,1.4547,1.4545,1.4562,1.457,1.4564,1.4573,1.4577,1.4577,1.4584,1.4584,1.4591,1.4584,1.4586,1.4593,1.4593,1.4605,1.4592,1.4601,1.4601,1.46,1.4627,1.4631,1.4651,1.4618,1.4619,1.4619,0,1.4555,1.4561,1.4579,1.4582,1.4585,1.4593,1.46,1.4606,1.4611,1.461,1.4615,1.4611,1.4621,1.4611,1.4625,1.4617,1.462,1.4621,1.4622,1.4622,1.4611,1.4627,1.4657,1.466,1.4623,1.4623,1.4623,0,1.4572,1.4585,1.4597,1.46,1.4604,1.461,1.4612,1.4616,1.462,1.4626,1.4629,1.4636,1.4639,1.4644,1.4643,1.4636,1.4657,1.4647,1.4657,1.4657,1.4661,1.466,1.4691,1.4664,1.4664,1.4664,1.4664,0,1.4595,1.4605,1.4605,1.4612,1.4625,1.4623,1.4635,1.4636,1.464,1.4647,1.4643,1.465,1.4647,1.4655,1.4653,1.4665,1.4667,1.4667,1.4666,1.4667,1.4667,1.4668,1.4667,1.4665,1.4665,1.4665,1.4665,0,1.4616,1.4616,1.4629,1.4632,1.4634,1.4642,1.4646,1.4653,1.4653,1.4663,1.4665,1.4665,1.4673,1.4673,1.4682,1.4681,1.4695,1.4693,1.4694,1.4693,1.4703,1.4702,1.4735,1.4739,1.4711,1.4711,1.4711,0,1.4629,1.4638,1.4643,1.4648,1.465,1.4658,1.4663,1.4662,1.4667,1.4672,1.4679,1.4687,1.4693,1.4706,1.4707,1.4714,1.4712,1.4723,1.4713,1.4713,1.4712,1.4711,1.4712,1.4725,1.4725,1.4726,1.4726,0,1.4654,1.4654,1.4661,1.4668,1.4674,1.468,1.4685,1.4689,1.4688,1.4694,1.4702,1.4707,1.4717,1.4725,1.4732,1.4734,1.4729,1.4729,1.4732,1.4732,1.4732,1.4732,1.4699,1.4728,1.4728,1.4728,1.4728,1.4728,1.4671,1.4678,1.4683,1.4691,1.4695,1.47,1.4707,1.4709,1.4716,1.4724,1.4723,1.4732,1.4737,1.4745,1.4748,1.4756,1.4752,1.4755,1.4756,1.4757,1.4758,1.4731,1.4757,1.4757,1.4757,1.4757,1.4757,0,1.4695,1.4698,1.4706,1.4713,1.472,1.4716,1.4722,1.4727,1.4736,1.4741,1.4747,1.4757,1.4765,1.4767,1.4774,1.478,1.4778,1.4782,1.4781,1.4781,1.4761,1.4758,1.4783,1.4783,1.4783,1.4783,1.4783,1.4783,1.4708,1.472,1.4721,1.4735,1.4738,1.4747,1.4751,1.4756,1.4759,1.4771,1.4777,1.4779,1.4782,1.479,1.4797,1.4798,1.48,1.4805,1.4804,1.4785,1.4783,1.478,1.4777,1.4805,1.4805,1.4823,1.4824,1.4824]}]]